Date,Time,Wetness (Wet Dry or Ice),Wind Speed (m/s),Temperature (C),Humidity (%),Pressure (mb),Radiation (W/m^2)
2020-12-13,05:30:00,DRY,1.37,6.00,55.7,772.00,1.3
2020-12-13,05:35:00,DRY,1.70,6.05,57.0,772.00,0.8
2020-12-13,05:40:00,DRY,0.93,6.10,56.0,772.00,1.6
2020-12-13,05:45:00,DRY,0.90,6.05,55.5,772.00,1.4
2020-12-13,05:50:00,DRY,0.67,6.00,55.7,772.00,1.3
2020-12-13,05:55:00,DRY,1.65,6.20,52.0,772.00,1.5
2020-12-13,06:00:00,DRY,1.57,6.20,54.0,772.00,0.7
2020-12-13,06:05:00,DRY,0.65,6.20,53.5,772.00,1.5
2020-12-13,06:10:00,DRY,0.60,6.17,51.3,772.00,1.4
2020-12-13,06:15:00,DRY,1.30,6.20,53.0,772.00,1.7
2020-12-13,06:20:00,DRY,0.87,6.20,47.3,772.00,1.6
2020-12-13,06:25:00,DRY,0.25,5.95,46.5,772.00,1.6
2020-12-13,06:30:00,DRY,0.57,5.90,46.0,772.00,1.9
2020-12-13,06:35:00,DRY,0.60,6.25,45.0,772.00,1.9
2020-12-13,06:40:00,DRY,0.40,6.17,42.3,772.00,1.4
2020-12-13,06:45:00,DRY,0.40,5.95,42.0,772.00,1.1
2020-12-13,06:50:00,DRY,0.87,6.13,41.0,772.00,1.5
2020-12-13,06:55:00,DRY,1.00,6.25,39.0,772.50,1.5
2020-12-13,07:00:00,DRY,1.53,6.27,40.3,772.00,0.6
2020-12-13,07:05:00,DRY,1.50,6.30,41.5,772.00,1.8
2020-12-13,07:10:00,DRY,1.50,6.17,43.3,772.00,1.8
2020-12-13,07:15:00,DRY,1.20,5.85,48.0,772.00,1.7
2020-12-13,07:20:00,DRY,1.67,5.70,47.7,772.00,1.4
2020-12-13,07:25:00,DRY,1.70,5.75,49.0,772.00,0.5
2020-12-13,07:30:00,DRY,1.80,5.73,50.7,772.00,1.5
2020-12-13,07:35:00,DRY,2.00,5.40,53.0,772.00,2.2
2020-12-13,07:40:00,DRY,1.50,5.73,50.7,772.00,0.5
2020-12-13,07:45:00,DRY,1.60,5.60,52.0,772.00,2.4
2020-12-13,07:50:00,DRY,1.97,5.47,51.0,772.00,4.6
2020-12-13,07:55:00,DRY,2.50,5.30,47.0,772.00,6.6
2020-12-13,08:00:00,DRY,2.17,5.00,46.3,772.00,10.0
2020-12-13,08:05:00,DRY,3.10,5.00,45.5,772.00,11.3
2020-12-13,08:10:00,DRY,2.60,4.93,40.7,772.00,14.1
2020-12-13,08:15:00,DRY,2.40,5.00,37.5,772.00,15.6
2020-12-13,08:20:00,DRY,2.87,5.00,39.0,772.00,18.5
2020-12-13,08:25:00,DRY,2.95,5.05,39.5,772.00,20.4
2020-12-13,08:30:00,DRY,2.63,5.17,41.3,772.33,22.7
2020-12-13,08:35:00,DRY,3.15,5.20,45.5,772.50,25.1
2020-12-13,08:40:00,DRY,3.03,5.17,47.0,772.33,142.7
2020-12-13,08:45:00,DRY,2.65,5.15,47.5,773.00,187.0
2020-12-13,08:50:00,DRY,2.80,5.00,58.0,772.67,205.4
2020-12-13,08:55:00,DRY,2.65,4.80,68.0,773.00,224.2
2020-12-13,09:00:00,DRY,3.40,4.90,69.7,773.00,244.6
2020-12-13,09:05:00,DRY,2.80,4.90,71.0,773.00,265.1
2020-12-13,09:10:00,DRY,3.23,4.93,71.0,773.00,284.7
2020-12-13,09:15:00,DRY,2.65,5.05,70.0,773.00,303.4
2020-12-13,09:20:00,DRY,4.00,4.93,70.7,772.67,322.9
2020-12-13,09:25:00,DRY,3.00,5.05,70.0,772.00,342.1
2020-12-13,09:30:00,DRY,2.40,5.03,70.0,772.67,360.5
2020-12-13,09:35:00,DRY,2.75,4.90,71.5,772.50,379.4
2020-12-13,09:40:00,DRY,2.97,5.03,71.0,773.00,396.9
2020-12-13,09:45:00,DRY,3.10,5.20,71.0,773.00,415.0
2020-12-13,09:50:00,DRY,2.90,5.13,70.7,773.00,432.7
2020-12-13,09:55:00,DRY,3.30,5.35,69.5,773.00,449.4
2020-12-13,10:00:00,DRY,3.97,5.57,69.3,773.00,466.4
2020-12-13,10:05:00,DRY,2.55,5.65,69.0,773.00,482.8
2020-12-13,10:10:00,DRY,3.80,5.60,68.7,773.00,500.0
2020-12-13,10:15:00,DRY,3.25,5.75,68.0,773.00,515.9
2020-12-13,10:20:00,DRY,3.80,5.83,68.0,773.00,531.3
2020-12-13,10:25:00,DRY,3.70,5.80,68.0,773.00,547.0
2020-12-13,10:30:00,DRY,3.80,6.00,67.7,773.00,561.0
2020-12-13,10:35:00,DRY,3.55,6.10,67.0,773.00,574.5
2020-12-13,10:40:00,DRY,2.93,5.93,68.7,773.00,588.4
2020-12-13,10:45:00,DRY,3.70,5.85,69.0,773.00,602.8
2020-12-13,10:50:00,DRY,3.80,5.83,69.0,773.00,616.3
2020-12-13,10:55:00,DRY,3.25,5.90,69.0,773.00,629.0
2020-12-13,11:00:00,DRY,3.10,6.07,68.7,773.00,641.5
2020-12-13,11:05:00,DRY,3.25,6.20,68.5,773.00,652.6
2020-12-13,11:10:00,DRY,3.83,6.13,69.0,773.00,664.3
2020-12-13,11:15:00,DRY,2.85,6.20,69.0,773.00,675.3
2020-12-13,11:20:00,DRY,2.73,6.40,67.3,773.00,686.2
2020-12-13,11:25:00,DRY,3.40,6.55,66.0,773.00,695.6
2020-12-13,11:30:00,DRY,3.27,6.67,66.3,773.00,705.3
2020-12-13,11:35:00,DRY,3.45,6.60,67.0,773.00,715.7
2020-12-13,11:40:00,DRY,3.60,6.67,67.0,773.00,723.8
2020-12-13,11:45:00,DRY,3.85,6.70,66.0,773.00,732.0
2020-12-13,11:50:00,DRY,3.63,6.87,63.7,772.33,739.1
2020-12-13,11:55:00,DRY,3.15,6.85,64.5,773.00,746.2
2020-12-13,12:00:00,DRY,3.23,6.97,65.3,772.00,753.0
2020-12-13,12:05:00,DRY,3.40,7.10,64.0,772.50,758.1
2020-12-13,12:10:00,DRY,3.17,7.17,65.0,772.00,764.0
2020-12-13,12:15:00,DRY,2.85,7.20,64.0,772.00,769.0
2020-12-13,12:20:00,DRY,3.00,7.27,65.0,772.00,772.8
2020-12-13,12:25:00,DRY,3.50,7.35,63.5,772.00,776.5
2020-12-13,12:30:00,DRY,3.57,7.37,64.0,772.00,779.3
2020-12-13,12:35:00,DRY,2.40,7.60,62.0,772.00,781.8
2020-12-13,12:40:00,DRY,3.07,7.30,64.7,772.00,785.9
2020-12-13,12:45:00,DRY,3.25,7.20,68.5,772.00,787.1
2020-12-13,12:50:00,DRY,2.87,7.10,67.3,772.00,788.7
2020-12-13,12:55:00,DRY,2.90,6.95,68.5,772.00,787.9
2020-12-13,13:00:00,DRY,3.83,7.13,69.3,772.00,789.1
2020-12-13,13:05:00,DRY,4.15,7.10,70.0,772.00,788.4
2020-12-13,13:10:00,DRY,3.83,7.00,71.7,772.00,787.8
2020-12-13,13:15:00,DRY,3.60,6.85,71.5,772.00,786.3
2020-12-13,13:20:00,DRY,4.33,6.77,72.0,772.00,786.0
2020-12-13,13:25:00,DRY,4.65,6.45,73.0,772.00,783.6
2020-12-13,13:30:00,DRY,4.10,6.50,75.0,772.00,783.8
2020-12-13,13:35:00,DRY,4.10,6.10,75.0,772.00,780.7
2020-12-13,13:40:00,DRY,3.77,6.07,77.3,772.00,777.9
2020-12-13,13:45:00,DRY,4.35,5.90,78.0,772.00,775.5
2020-12-13,13:50:00,DRY,5.03,5.90,80.0,771.33,812.8
2020-12-13,13:55:00,DRY,5.15,5.65,84.0,771.00,696.8
2020-12-13,14:00:00,DRY,4.90,5.33,81.3,771.00,702.0
2020-12-13,14:05:00,DRY,5.55,5.60,77.5,771.00,750.0
2020-12-13,14:10:00,DRY,6.57,5.50,76.7,771.00,743.0
2020-12-13,14:15:00,DRY,6.90,5.30,80.5,771.00,736.4
2020-12-13,14:20:00,DRY,6.77,5.33,81.3,771.00,728.3
2020-12-13,14:25:00,DRY,5.50,5.75,80.0,771.00,720.5
2020-12-13,14:30:00,DRY,5.33,5.47,78.7,771.00,711.6
2020-12-13,14:35:00,DRY,5.55,5.35,79.5,771.00,703.4
2020-12-13,14:40:00,DRY,6.83,5.37,79.3,771.00,693.9
2020-12-13,14:45:00,DRY,4.90,5.00,82.0,771.00,682.9
2020-12-13,14:50:00,DRY,5.67,5.33,79.7,771.00,673.4
2020-12-13,14:55:00,DRY,5.70,5.25,79.0,771.00,661.6
2020-12-13,15:00:00,DRY,5.43,5.30,79.0,771.00,650.1
2020-12-13,15:05:00,DRY,7.10,5.25,78.5,771.00,638.2
2020-12-13,15:10:00,DRY,5.27,5.27,80.0,771.00,625.6
2020-12-13,15:15:00,DRY,5.85,5.25,80.0,771.00,613.8
2020-12-13,15:20:00,DRY,5.13,5.17,80.7,771.00,600.2
2020-12-13,15:25:00,DRY,5.30,5.10,80.5,771.00,586.6
2020-12-13,15:30:00,DRY,4.47,5.03,80.0,771.00,573.1
2020-12-13,15:35:00,DRY,4.15,4.95,81.0,771.00,558.8
2020-12-13,15:40:00,DRY,4.73,5.00,81.0,771.00,543.3
2020-12-13,15:45:00,DRY,5.45,4.95,80.5,771.00,529.3
2020-12-13,15:50:00,DRY,4.03,4.93,81.0,771.00,513.7
2020-12-13,15:55:00,DRY,5.10,4.95,81.0,771.00,497.1
2020-12-13,16:00:00,DRY,6.37,5.10,81.7,771.00,480.8
2020-12-13,16:05:00,DRY,5.00,5.40,81.5,771.00,464.3
2020-12-13,16:10:00,DRY,3.90,5.17,81.7,771.00,447.2
2020-12-13,16:15:00,DRY,7.20,5.20,82.0,771.00,429.7
2020-12-13,16:20:00,DRY,4.57,5.43,81.3,771.00,411.9
2020-12-13,16:25:00,DRY,5.90,5.25,81.5,771.00,394.3
2020-12-13,16:30:00,DRY,5.80,5.17,82.0,771.00,375.4
2020-12-13,16:35:00,DRY,6.60,5.10,81.5,771.00,356.4
2020-12-13,16:40:00,DRY,5.60,5.07,82.3,771.00,338.2
2020-12-13,16:45:00,DRY,5.55,4.90,82.5,771.00,318.9
2020-12-13,16:50:00,DRY,6.03,4.90,81.3,771.00,299.8
2020-12-13,16:55:00,DRY,6.50,4.95,81.5,771.00,280.5
2020-12-13,17:00:00,DRY,6.67,4.90,82.0,771.00,261.5
2020-12-13,17:05:00,DRY,6.35,5.20,81.5,771.00,241.9
2020-12-13,17:10:00,DRY,5.27,4.90,82.7,771.00,222.7
2020-12-13,17:15:00,DRY,6.95,4.70,84.5,771.00,203.8
2020-12-13,17:20:00,DRY,6.60,4.70,85.3,771.00,185.7
2020-12-13,17:25:00,DRY,4.90,4.65,86.0,771.00,166.6
2020-12-13,17:30:00,DRY,4.93,4.53,87.0,771.00,147.5
2020-12-13,17:35:00,DRY,6.40,4.75,84.0,771.00,123.9
2020-12-13,17:40:00,DRY,6.70,4.73,83.7,771.00,99.3
2020-12-13,17:45:00,DRY,5.85,4.60,83.0,771.00,76.0
2020-12-13,17:50:00,DRY,6.97,4.73,82.7,771.00,56.9
2020-12-13,17:55:00,DRY,6.65,4.65,81.5,771.00,40.4
2020-12-13,18:00:00,DRY,6.50,4.47,82.7,771.33,27.3
2020-12-13,18:05:00,DRY,6.00,4.60,82.0,771.00,18.6
2020-12-13,18:10:00,DRY,6.07,4.63,81.3,771.00,14.6
2020-12-13,18:15:00,DRY,6.50,4.70,80.5,771.00,10.7
2020-12-13,18:20:00,DRY,6.67,4.73,79.7,771.00,6.0
2020-12-13,18:25:00,DRY,5.85,4.85,79.5,772.00,3.3
2020-12-13,18:30:00,DRY,5.93,4.90,80.0,771.33,2.2
2020-12-13,18:35:00,DRY,5.55,4.90,79.5,772.00,1.7
2020-12-13,18:40:00,DRY,5.27,4.80,78.7,772.00,1.3
2020-12-13,18:45:00,DRY,5.70,4.80,80.5,772.00,1.4
2020-12-13,18:50:00,DRY,6.23,5.00,80.0,772.00,1.3
2020-12-13,18:55:00,DRY,6.45,5.00,80.5,772.00,1.3
2020-12-13,19:00:00,DRY,5.47,4.93,80.3,772.00,1.3
2020-12-13,19:05:00,DRY,6.20,4.85,80.5,772.00,1.5
2020-12-13,19:10:00,DRY,5.93,4.57,82.7,772.00,1.3
2020-12-13,19:15:00,DRY,5.55,4.55,85.0,772.00,1.1
2020-12-13,19:20:00,DRY,5.30,4.47,84.7,772.00,1.4
2020-12-13,19:25:00,DRY,5.50,4.35,85.5,772.00,0.9
2020-12-13,19:30:00,DRY,5.23,4.40,85.7,772.00,1.6
2020-12-13,19:35:00,DRY,5.90,4.30,85.0,772.00,2.1
2020-12-13,19:40:00,DRY,6.63,4.50,84.3,772.00,1.8
2020-12-13,19:45:00,DRY,6.20,4.60,84.0,772.00,1.4
2020-12-13,19:50:00,DRY,7.03,4.33,87.3,772.00,1.8
2020-12-13,19:55:00,DRY,6.20,4.35,86.0,772.00,1.6
2020-12-13,20:00:00,DRY,6.77,4.40,86.0,772.00,1.3
2020-12-13,20:05:00,DRY,5.75,4.40,87.5,772.00,1.4
2020-12-13,20:10:00,DRY,5.83,4.37,89.3,772.00,1.5
2020-12-13,20:15:00,DRY,6.15,4.45,86.0,772.00,1.4
2020-12-13,20:20:00,DRY,7.27,4.43,86.7,772.00,1.4
2020-12-13,20:25:00,DRY,6.95,4.40,86.0,772.00,2.4
2020-12-13,20:30:00,DRY,6.17,4.50,86.7,772.00,1.4
2020-12-13,20:35:00,DRY,5.75,4.50,87.5,772.00,1.5
2020-12-13,20:40:00,DRY,6.50,4.50,87.3,772.00,1.3
2020-12-13,20:45:00,DRY,6.20,4.50,88.0,772.00,1.6
2020-12-13,20:50:00,DRY,6.33,4.40,88.7,772.00,1.6
2020-12-13,20:55:00,DRY,6.00,4.35,89.0,772.00,1.7
2020-12-13,21:00:00,DRY,5.97,4.27,89.3,772.00,0.9
2020-12-13,21:05:00,DRY,5.75,4.45,89.5,772.00,1.7
2020-12-13,21:10:00,DRY,6.40,4.50,89.3,772.00,2.4
2020-12-13,21:15:00,DRY,5.15,4.60,88.5,772.00,2.2
2020-12-13,21:20:00,DRY,6.53,4.67,89.3,772.33,1.5
2020-12-13,21:25:00,DRY,6.70,4.65,87.5,772.00,1.6
2020-12-13,21:30:00,DRY,5.70,4.73,86.7,772.00,1.6
2020-12-13,21:35:00,DRY,6.75,4.75,84.5,773.00,1.6
2020-12-13,21:40:00,DRY,5.90,4.83,81.3,772.67,1.4
2020-12-13,21:45:00,DRY,5.85,4.95,77.5,773.00,1.9
2020-12-13,21:50:00,DRY,5.87,4.87,77.7,773.00,1.3
2020-12-13,21:55:00,DRY,6.80,5.05,72.0,773.00,1.4
2020-12-13,22:00:00,DRY,6.73,5.20,72.0,773.00,1.4
2020-12-13,22:05:00,DRY,6.80,5.25,70.5,773.00,0.8
2020-12-13,22:10:00,DRY,6.43,5.30,69.7,773.00,0.9
2020-12-13,22:15:00,DRY,6.30,5.25,70.5,773.00,1.2
2020-12-13,22:20:00,DRY,5.70,5.13,70.3,773.00,1.2
2020-12-13,22:25:00,DRY,6.30,5.00,72.5,773.00,1.2
2020-12-13,22:30:00,DRY,6.03,5.00,71.3,773.00,0.9
2020-12-13,22:35:00,DRY,5.75,5.10,71.5,773.00,1.2
2020-12-13,22:40:00,DRY,5.50,5.17,70.3,773.00,1.3
2020-12-13,22:45:00,DRY,5.30,5.15,70.5,773.00,1.2
2020-12-13,22:50:00,DRY,5.27,5.23,69.3,773.00,1.3
2020-12-13,22:55:00,DRY,5.05,5.25,69.5,773.00,1.1
2020-12-13,23:00:00,DRY,5.10,5.20,70.0,773.00,1.2
2020-12-13,23:05:00,DRY,5.05,5.20,71.0,773.00,1.1
2020-12-13,23:10:00,DRY,4.93,5.10,71.0,773.00,1.3
2020-12-13,23:15:00,DRY,5.00,5.10,72.0,773.00,1.5
2020-12-13,23:20:00,DRY,4.53,5.07,70.3,773.00,1.3
2020-12-13,23:25:00,DRY,4.85,5.05,71.0,773.00,1.2
2020-12-13,23:30:00,DRY,5.80,5.03,72.0,773.00,1.2
2020-12-13,23:35:00,DRY,5.40,4.85,77.0,773.00,1.4
2020-12-13,23:40:00,DRY,4.50,4.50,79.7,773.00,1.2
2020-12-13,23:45:00,DRY,5.70,4.75,74.5,773.00,1.0
2020-12-13,23:50:00,DRY,4.87,5.20,72.0,773.00,1.1
2020-12-13,23:55:00,DRY,4.75,4.65,75.5,773.00,1.2
2020-12-14,00:00:00,DRY,4.43,4.80,74.7,773.00,1.4
2020-12-14,00:05:00,DRY,5.80,4.75,74.5,773.00,1.2
2020-12-14,00:10:00,DRY,5.07,4.70,78.0,773.00,1.0
2020-12-14,00:15:00,DRY,4.80,4.60,78.0,773.00,1.1
2020-12-14,00:20:00,DRY,4.50,4.80,76.7,773.00,1.2
2020-12-14,00:25:00,DRY,4.20,4.65,78.0,773.00,1.3
2020-12-14,00:30:00,DRY,4.63,4.43,79.7,773.00,1.3
2020-12-14,00:35:00,DRY,4.30,4.35,80.0,772.50,1.2
2020-12-14,00:40:00,DRY,4.60,4.43,80.7,773.00,1.2
2020-12-14,00:45:00,DRY,4.15,4.25,82.5,773.00,1.4
2020-12-14,00:50:00,DRY,5.17,4.40,83.0,773.00,1.6
2020-12-14,00:55:00,DRY,4.45,4.30,84.5,773.00,1.8
2020-12-14,01:00:00,DRY,3.87,4.33,85.3,772.67,1.1
2020-12-14,01:05:00,DRY,5.00,4.35,86.5,773.00,1.6
2020-12-14,01:10:00,DRY,4.27,4.17,87.7,772.67,1.5
2020-12-14,01:15:00,DRY,3.80,4.10,88.5,772.50,1.4
2020-12-14,01:20:00,DRY,3.43,4.17,89.0,772.00,2.0
2020-12-14,01:25:00,DRY,4.15,3.85,90.0,772.50,1.4
2020-12-14,01:30:00,DRY,3.80,3.87,90.7,772.00,1.2
2020-12-14,01:35:00,DRY,3.35,3.80,92.0,772.00,1.4
2020-12-14,01:40:00,DRY,3.57,3.80,91.7,772.33,1.6
2020-12-14,01:45:00,DRY,3.25,3.80,90.5,772.00,2.0
2020-12-14,01:50:00,DRY,3.93,3.93,86.7,772.00,1.9
2020-12-14,01:55:00,DRY,4.30,4.00,82.5,772.00,1.4
2020-12-14,02:00:00,DRY,3.47,4.20,81.3,772.00,1.6
2020-12-14,02:05:00,DRY,3.10,4.35,83.0,772.00,1.1
2020-12-14,02:10:00,DRY,3.20,4.13,83.7,772.00,1.6
2020-12-14,02:15:00,DRY,4.00,4.15,81.5,772.00,1.6
2020-12-14,02:20:00,DRY,4.17,4.53,75.7,772.00,1.2
2020-12-14,02:25:00,DRY,3.65,4.80,73.5,772.00,1.5
2020-12-14,02:30:00,DRY,3.23,4.63,73.7,772.00,1.8
2020-12-14,02:35:00,DRY,3.25,4.65,73.5,772.00,1.0
2020-12-14,02:40:00,DRY,3.33,4.63,73.7,772.00,1.4
2020-12-14,02:45:00,DRY,3.00,4.60,73.5,772.00,1.1
2020-12-14,02:50:00,DRY,3.20,4.70,73.0,772.00,1.0
2020-12-14,02:55:00,DRY,2.90,4.65,74.0,772.00,1.6
2020-12-14,03:00:00,DRY,2.87,4.73,73.0,772.00,1.5
2020-12-14,03:05:00,DRY,2.90,4.70,72.0,772.00,0.7
2020-12-14,03:10:00,DRY,3.07,4.80,71.7,772.00,1.1
2020-12-14,03:15:00,DRY,3.10,4.90,69.0,772.00,0.8
2020-12-14,03:20:00,DRY,3.70,4.70,69.3,772.00,1.2
2020-12-14,03:25:00,DRY,3.55,4.75,68.0,772.00,1.2
2020-12-14,03:30:00,DRY,3.27,4.90,66.3,772.00,1.2
2020-12-14,03:35:00,DRY,3.25,4.90,66.0,772.00,1.3
2020-12-14,03:40:00,DRY,3.27,5.07,65.3,772.00,1.5
2020-12-14,03:45:00,DRY,2.90,5.15,65.0,772.00,0.5
2020-12-14,03:50:00,DRY,2.57,5.23,65.0,772.00,1.4
2020-12-14,03:55:00,DRY,2.30,5.35,64.5,772.00,1.1
2020-12-14,04:00:00,DRY,2.70,5.27,64.3,772.00,0.8
2020-12-14,04:05:00,DRY,2.55,5.15,64.5,772.00,1.9
2020-12-14,04:10:00,DRY,3.37,5.23,64.7,772.00,1.0
2020-12-14,04:15:00,DRY,3.45,5.25,64.0,772.00,1.1
2020-12-14,04:20:00,DRY,3.20,5.37,62.3,772.00,1.1
2020-12-14,04:25:00,DRY,3.70,5.40,61.0,772.00,1.1
2020-12-14,04:30:00,DRY,3.43,5.43,61.3,772.00,1.4
2020-12-14,04:35:00,DRY,3.20,5.35,62.5,772.00,1.9
2020-12-14,04:40:00,DRY,3.40,5.23,63.0,772.00,1.2
2020-12-14,04:45:00,DRY,3.25,5.25,63.0,772.00,1.7
2020-12-14,04:50:00,DRY,3.27,5.20,63.0,772.00,1.0
2020-12-14,04:55:00,DRY,3.55,5.30,63.0,772.00,1.0
2020-12-14,05:00:00,DRY,2.47,5.20,64.0,772.00,1.4
2020-12-14,05:05:00,DRY,2.50,5.20,64.0,772.00,0.8
2020-12-14,05:10:00,DRY,2.43,5.23,64.0,772.00,1.4
2020-12-14,05:15:00,DRY,1.75,5.20,64.0,772.00,1.2
2020-12-14,05:20:00,DRY,2.53,5.13,65.0,772.00,0.8
2020-12-14,05:25:00,DRY,2.25,5.35,62.5,772.00,1.6
2020-12-14,05:30:00,DRY,2.40,5.67,59.0,772.00,0.3
2020-12-14,05:35:00,DRY,1.55,5.55,60.0,772.00,0.2
2020-12-14,05:40:00,DRY,2.93,5.57,58.7,772.00,1.6
2020-12-14,05:45:00,DRY,2.55,5.75,57.5,772.00,1.2
2020-12-14,05:50:00,DRY,2.50,5.73,58.0,772.00,1.1
2020-12-14,05:55:00,DRY,2.50,5.65,57.5,772.00,1.3
2020-12-14,06:00:00,DRY,1.90,5.87,56.3,772.00,1.2
2020-12-14,06:05:00,DRY,2.40,5.85,56.5,772.00,1.6
2020-12-14,06:10:00,DRY,1.90,6.03,55.3,772.00,0.9
2020-12-14,06:15:00,DRY,1.90,6.00,55.0,772.00,1.3
2020-12-14,06:20:00,DRY,2.07,5.97,55.7,772.00,1.1
2020-12-14,06:25:00,DRY,2.35,6.00,55.5,772.00,1.1
2020-12-14,06:30:00,DRY,2.30,5.90,55.7,772.00,0.8
2020-12-14,06:35:00,DRY,2.00,6.15,55.0,772.00,1.9
2020-12-14,06:40:00,DRY,2.03,5.93,55.3,772.00,1.9
2020-12-14,06:45:00,DRY,1.55,6.05,55.0,772.00,1.2
2020-12-14,06:50:00,DRY,1.97,6.17,54.7,772.00,0.8
2020-12-14,06:55:00,DRY,1.10,6.20,54.5,772.00,0.7
2020-12-14,07:00:00,DRY,0.83,6.17,54.7,772.00,1.5
2020-12-14,07:05:00,DRY,1.40,6.30,54.0,772.00,0.1
2020-12-14,07:10:00,DRY,1.33,6.20,54.0,772.00,1.9
2020-12-14,07:15:00,DRY,1.60,6.25,53.0,772.00,0.7
2020-12-14,07:20:00,DRY,1.43,6.20,54.7,772.00,1.5
2020-12-14,07:25:00,DRY,1.80,6.05,54.0,772.00,1.1
2020-12-14,07:30:00,DRY,1.63,6.13,50.3,772.33,1.3
2020-12-14,07:35:00,DRY,1.75,6.00,50.5,772.00,1.6
2020-12-14,07:40:00,DRY,2.10,6.00,49.3,772.00,1.5
2020-12-14,07:45:00,DRY,1.95,6.05,52.5,772.50,2.4
2020-12-14,07:50:00,DRY,1.33,6.03,52.0,773.00,3.9
2020-12-14,07:55:00,DRY,2.25,5.90,53.5,773.00,7.2
2020-12-14,08:00:00,DRY,2.37,5.87,55.7,773.00,8.7
2020-12-14,08:05:00,DRY,2.70,5.95,54.0,773.00,12.3
2020-12-14,08:10:00,DRY,1.83,5.80,55.3,773.00,12.8
2020-12-14,08:15:00,DRY,2.10,5.25,58.0,773.00,15.8
2020-12-14,08:20:00,DRY,1.73,5.37,59.0,773.00,17.8
2020-12-14,08:25:00,DRY,1.05,5.10,70.5,773.00,20.1
2020-12-14,08:30:00,WET,0.90,4.67,96.0,773.00,36.0
2020-12-14,08:35:00,DRY,0.35,4.75,78.0,773.00,24.8
2020-12-14,08:40:00,DRY,1.77,5.43,64.3,773.00,132.2
2020-12-14,08:45:00,DRY,0.35,5.75,59.5,773.00,184.4
2020-12-14,08:50:00,DRY,1.07,5.97,59.3,773.00,204.5
2020-12-14,08:55:00,DRY,1.60,5.65,61.0,773.00,223.4
2020-12-14,09:00:00,DRY,0.67,5.73,57.0,773.00,243.5
2020-12-14,09:05:00,DRY,0.65,6.05,55.5,773.00,263.4
2020-12-14,09:10:00,DRY,0.97,6.27,57.7,773.00,282.7
2020-12-14,09:15:00,DRY,1.10,6.10,57.0,773.00,302.6
2020-12-14,09:20:00,DRY,0.47,6.27,56.7,773.00,323.1
2020-12-14,09:25:00,DRY,0.85,6.65,55.5,773.00,341.6
2020-12-14,09:30:00,DRY,1.10,6.23,57.0,773.00,360.8
2020-12-14,09:35:00,DRY,0.75,6.35,54.5,773.00,378.9
2020-12-14,09:40:00,DRY,0.83,6.73,55.3,773.00,397.8
2020-12-14,09:45:00,DRY,1.90,6.30,58.0,773.00,415.3
2020-12-14,09:50:00,DRY,2.00,6.63,50.0,773.00,433.1
2020-12-14,09:55:00,DRY,1.55,6.75,47.5,773.00,450.1
2020-12-14,10:00:00,DRY,2.13,6.47,56.0,773.00,467.0
2020-12-14,10:05:00,DRY,2.00,6.25,60.5,773.00,484.5
2020-12-14,10:10:00,DRY,1.73,5.87,63.7,773.00,501.3
2020-12-14,10:15:00,DRY,1.90,6.05,62.0,773.00,517.6
2020-12-14,10:20:00,DRY,1.60,6.10,59.0,773.00,533.3
2020-12-14,10:25:00,DRY,1.35,6.25,56.5,773.00,548.5
2020-12-14,10:30:00,DRY,1.47,6.33,55.3,773.00,562.4
2020-12-14,10:35:00,DRY,1.60,6.60,55.0,773.00,575.5
2020-12-14,10:40:00,DRY,1.43,6.40,55.3,773.00,590.5
2020-12-14,10:45:00,DRY,0.60,6.60,55.5,773.00,604.6
2020-12-14,10:50:00,DRY,1.23,6.73,55.7,773.00,616.6
2020-12-14,10:55:00,DRY,1.55,6.65,56.5,773.00,630.1
2020-12-14,11:00:00,DRY,2.30,6.53,55.3,773.00,642.4
2020-12-14,11:05:00,DRY,0.95,6.35,54.0,773.00,654.5
2020-12-14,11:10:00,DRY,1.43,6.73,51.0,773.00,664.4
2020-12-14,11:15:00,DRY,1.60,6.75,50.0,773.00,677.2
2020-12-14,11:20:00,DRY,1.23,6.77,50.0,773.00,687.8
2020-12-14,11:25:00,DRY,1.55,6.80,50.5,773.00,698.1
2020-12-14,11:30:00,DRY,3.20,6.77,50.7,773.00,707.1
2020-12-14,11:35:00,DRY,1.80,6.75,54.0,773.00,716.4
2020-12-14,11:40:00,DRY,2.23,6.63,56.7,773.00,725.5
2020-12-14,11:45:00,DRY,1.20,6.90,59.0,773.00,732.4
2020-12-14,11:50:00,DRY,3.20,6.93,56.0,773.00,740.7
2020-12-14,11:55:00,DRY,1.50,6.75,59.0,773.00,748.0
2020-12-14,12:00:00,DRY,1.70,6.77,60.7,773.00,756.7
2020-12-14,12:05:00,DRY,1.60,6.70,62.0,773.00,761.8
2020-12-14,12:10:00,DRY,1.30,7.20,59.0,773.00,768.6
2020-12-14,12:15:00,DRY,1.10,7.55,58.5,773.00,773.6
2020-12-14,12:20:00,DRY,1.60,7.63,56.0,773.00,778.1
2020-12-14,12:25:00,DRY,2.20,7.80,57.0,773.00,783.3
2020-12-14,12:30:00,DRY,1.57,7.57,58.0,773.00,786.0
2020-12-14,12:35:00,DRY,2.45,8.15,56.0,773.00,788.5
2020-12-14,12:40:00,DRY,1.97,7.80,60.7,773.00,792.0
2020-12-14,12:45:00,DRY,1.45,7.65,61.0,773.00,793.3
2020-12-14,12:50:00,DRY,2.20,8.00,61.0,772.67,797.9
2020-12-14,12:55:00,DRY,1.95,7.90,66.0,772.50,797.8
2020-12-14,13:00:00,DRY,1.90,7.60,63.7,772.33,802.4
2020-12-14,13:05:00,DRY,1.05,7.60,65.5,772.50,804.8
2020-12-14,13:10:00,DRY,1.73,8.10,60.0,772.00,813.5
2020-12-14,13:15:00,DRY,2.25,8.00,60.0,772.00,812.2
2020-12-14,13:20:00,DRY,0.93,8.13,65.3,772.00,805.3
2020-12-14,13:25:00,DRY,2.00,7.90,83.0,772.00,705.1
2020-12-14,13:30:00,DRY,1.70,6.80,94.0,772.00,600.9
2020-12-14,13:35:00,DRY,2.20,6.90,88.0,772.00,997.4
2020-12-14,13:40:00,DRY,1.63,6.87,94.0,772.00,582.7
2020-12-14,13:45:00,WET,1.95,6.90,97.5,772.00,617.3
2020-12-14,13:50:00,WET,2.33,6.90,98.7,772.00,516.9
2020-12-14,13:55:00,WET,2.55,6.80,99.0,772.00,481.9
2020-12-14,14:00:00,WET,2.30,6.83,100.0,772.00,521.8
2020-12-14,14:05:00,DRY,2.25,6.70,99.5,772.00,719.1
2020-12-14,14:10:00,WET,2.00,6.63,99.7,772.00,545.0
2020-12-14,14:15:00,WET,2.80,6.90,100.0,772.00,521.2
2020-12-14,14:20:00,WET,2.63,6.87,100.0,772.00,287.4
2020-12-14,14:25:00,WET,2.85,6.50,100.0,772.00,468.0
2020-12-14,14:30:00,WET,2.50,6.93,100.0,772.00,593.6
2020-12-14,14:35:00,WET,3.25,7.05,100.0,772.00,558.8
2020-12-14,14:40:00,WET,2.47,6.43,100.0,772.00,432.1
2020-12-14,14:45:00,WET,3.00,6.95,100.0,772.00,580.7
2020-12-14,14:50:00,DRY,1.67,6.17,100.0,772.00,469.7
2020-12-14,14:55:00,DRY,1.15,5.75,100.0,772.00,728.2
2020-12-14,15:00:00,DRY,1.37,5.90,100.0,772.00,713.5
2020-12-14,15:05:00,DRY,1.70,6.10,100.0,772.00,776.0
2020-12-14,15:10:00,WET,1.83,6.00,100.0,772.00,645.0
2020-12-14,15:15:00,WET,1.60,6.05,100.0,772.00,611.9
2020-12-14,15:20:00,DRY,2.33,6.40,100.0,772.00,419.1
2020-12-14,15:25:00,WET,2.75,6.50,100.0,772.00,386.7
2020-12-14,15:30:00,WET,2.03,6.13,100.0,772.00,361.6
2020-12-14,15:35:00,WET,2.25,6.35,100.0,772.00,482.9
2020-12-14,15:40:00,WET,1.47,6.70,100.0,772.00,602.5
2020-12-14,15:45:00,WET,1.55,6.40,100.0,772.00,543.0
2020-12-14,15:50:00,DRY,1.23,6.40,100.0,772.00,550.6
2020-12-14,15:55:00,DRY,1.45,5.50,97.0,772.00,588.2
2020-12-14,16:00:00,DRY,0.93,6.00,94.3,772.00,611.0
2020-12-14,16:05:00,DRY,1.35,6.00,95.5,772.00,587.8
2020-12-14,16:10:00,DRY,1.90,6.33,67.3,772.00,375.8
2020-12-14,16:15:00,DRY,1.45,6.45,67.0,772.00,277.9
2020-12-14,16:20:00,DRY,1.20,6.00,82.0,772.00,229.9
2020-12-14,16:25:00,DRY,1.45,5.50,96.0,772.00,241.1
2020-12-14,16:30:00,DRY,2.10,5.70,88.0,772.00,390.1
2020-12-14,16:35:00,DRY,3.25,5.70,85.0,772.00,308.4
2020-12-14,16:40:00,DRY,3.20,5.40,84.3,772.00,383.4
2020-12-14,16:45:00,DRY,3.80,5.05,81.0,772.00,346.1
2020-12-14,16:50:00,DRY,3.17,4.80,82.7,772.00,318.2
2020-12-14,16:55:00,DRY,2.70,4.75,82.0,772.00,294.3
2020-12-14,17:00:00,DRY,3.13,4.67,76.0,772.00,271.9
2020-12-14,17:05:00,DRY,3.25,4.55,79.5,772.00,251.9
2020-12-14,17:10:00,DRY,3.93,4.50,65.7,772.00,233.0
2020-12-14,17:15:00,DRY,3.85,4.40,62.0,772.00,214.5
2020-12-14,17:20:00,DRY,3.17,4.37,58.0,772.00,196.5
2020-12-14,17:25:00,DRY,3.50,3.90,57.0,772.00,178.1
2020-12-14,17:30:00,DRY,2.77,3.33,63.7,772.00,159.0
2020-12-14,17:35:00,DRY,3.10,3.15,72.5,772.00,135.6
2020-12-14,17:40:00,DRY,3.53,3.40,87.0,772.00,135.6
2020-12-14,17:45:00,DRY,3.65,3.70,99.5,772.00,56.5
2020-12-14,17:50:00,DRY,4.33,3.93,100.0,772.00,62.1
2020-12-14,17:55:00,WET,3.85,4.15,100.0,772.00,67.7
2020-12-14,18:00:00,WET,4.30,4.47,100.0,772.00,85.5
2020-12-14,18:05:00,WET,3.70,4.40,100.0,772.00,57.0
2020-12-14,18:10:00,WET,3.60,4.40,100.0,772.00,50.0
2020-12-14,18:15:00,DRY,3.25,4.25,100.0,772.00,48.6
2020-12-14,18:20:00,WET,3.67,4.07,100.0,772.00,51.8
2020-12-14,18:25:00,WET,3.90,3.80,100.0,772.00,69.8
2020-12-14,18:30:00,WET,3.83,3.53,100.0,772.00,71.3
2020-12-14,18:35:00,DRY,4.40,3.35,100.0,772.00,70.2
2020-12-14,18:40:00,DRY,3.33,2.93,100.0,772.00,66.3
2020-12-14,18:45:00,DRY,3.50,2.45,100.0,772.00,54.5
2020-12-14,18:50:00,DRY,2.97,2.73,86.7,772.00,47.3
2020-12-14,18:55:00,DRY,4.35,2.85,87.0,772.00,44.4
2020-12-14,19:00:00,DRY,2.97,3.07,97.7,772.00,47.8
2020-12-14,19:05:00,DRY,3.95,3.15,100.0,772.00,49.3
2020-12-14,19:10:00,WET,3.63,3.33,100.0,772.00,50.3
2020-12-14,19:15:00,DRY,4.35,3.35,100.0,772.00,51.1
2020-12-14,19:20:00,DRY,4.17,2.50,99.3,772.00,47.6
2020-12-14,19:25:00,DRY,4.05,2.70,90.5,772.00,50.0
2020-12-14,19:30:00,DRY,4.50,2.80,91.3,772.00,50.4
2020-12-14,19:35:00,DRY,4.85,2.70,96.0,772.00,50.2
2020-12-14,19:40:00,WET,4.80,3.47,99.0,772.00,51.6
2020-12-14,19:45:00,WET,4.65,3.85,100.0,772.00,53.8
2020-12-14,19:50:00,WET,4.90,4.20,100.0,772.33,55.7
2020-12-14,19:55:00,WET,5.60,4.25,100.0,772.50,60.4
2020-12-14,20:00:00,WET,4.60,4.00,100.0,772.33,62.0
2020-12-14,20:05:00,WET,5.40,3.85,100.0,772.50,62.8
2020-12-14,20:10:00,WET,3.83,4.03,100.0,772.33,66.6
2020-12-14,20:15:00,WET,4.20,3.90,100.0,772.50,65.8
2020-12-14,20:20:00,DRY,3.37,3.30,100.0,773.00,67.0